SCP
0 0 0 0 0 0 0 0 0 0 0 0 0 0 0 0 0 0 0 0 0 1 1 1 1 1 0 0 0 0 0 0 0 0 1 1 1 0 0 0 0 0 0 0 0 0 0 0 0
0 0 0 0 0 0 0 0 0 0 0 0 0 0 0 0 0 0 0 0 1 1 1 1 1 1 1 0 0 0 0 0 0 0 0 0 0 0 0 0 0 0 0 0 0 0 0 0 0
0 0 0 0 0 0 0 0 0 0 0 0 0 0 0 0 0 0 0 1 1 1 1 1 1 1 1 1 0 0 0 0 0 0 0 0 0 0 0 0 0 0 0 0 0 0 0 0 0
0 0 0 0 0 0 0 0 0 0 0 0 0 0 0 0 0 0 1 1 1 1 1 1 1 1 1 1 1 1 0 0 0 0 0 0 0 0 0 0 0 0 0 0 0 0 0 0 0
0 0 0 0 -0 -0 0 0 0 0 0 0 0 0 1 1 1 1 1 1 1 1 1 1 1 1 1 1 1 1 1 1 1 0 0 0 0 0 0 0 0 0 0 0 0 0 0 0 0
0 0 0 0 -0 0 0 0 0 0 0 0 0 1 1 1 1 1 1 1 1 1 1 1 1 1 1 1 1 1 1 1 1 1 0 0 0 0 0 0 0 0 0 0 0 0 0 0 0
0 0 0 0 0 0 0 0 0 0 0 0 0 1 1 1 1 2 1 1 1 1 1 1 1 1 1 1 1 1 1 1 1 1 1 0 0 0 0 0 0 0 0 0 0 0 0 0 0
0 0 0 0 0 0 0 0 0 0 0 0 1 1 1 1 2 2 2 2 1 1 1 1 1 1 1 1 1 1 1 1 1 1 1 1 0 0 0 0 0 0 0 0 0 0 0 0 0
0 0 0 0 0 0 0 0 0 0 0 1 1 1 1 2 2 2 2 2 1 1 1 1 1 1 1 1 1 1 1 1 1 1 1 1 0 0 0 0 0 0 0 0 0 0 0 0 0
0 0 0 0 0 0 0 0 0 0 1 1 1 1 1 2 2 2 2 2 1 1 1 1 1 1 1 1 1 1 1 1 1 1 1 1 0 0 0 0 0 0 0 0 0 0 0 0 0
0 0 0 0 0 0 0 0 0 0 1 1 1 1 1 2 2 2 2 2 1 1 1 1 1 1 1 1 1 1 1 1 1 1 1 1 0 0 0 0 0 0 0 0 0 0 0 0 0
0 0 0 0 0 0 0 0 0 0 0 1 1 1 1 1 1 1 1 1 1 1 1 1 1 1 1 1 1 1 1 1 1 0 0 1 0 0 0 0 0 0 0 0 0 0 0 0 0
0 0 0 0 0 0 0 0 0 0 0 0 1 1 1 1 1 1 1 1 1 1 1 1 1 1 1 1 1 1 1 1 0 -0 0 1 0 0 0 0 0 0 0 0 0 0 0 0 0
0 0 0 0 0 0 0 0 0 0 0 0 1 1 1 1 1 1 1 1 1 1 1 1 1 1 1 1 1 1 1 1 0 0 0 0 0 0 0 0 0 0 0 0 0 0 0 0 0
0 0 0 0 0 0 0 0 0 0 0 1 1 1 1 1 1 1 1 1 1 1 1 1 1 1 1 1 1 1 1 1 1 1 0 0 0 0 0 0 0 0 0 0 0 0 0 0 0
0 0 0 0 0 0 0 0 0 0 1 1 1 1 1 1 1 1 1 1 1 1 1 1 1 1 1 1 1 1 1 1 0 0 0 0 0 0 0 0 0 0 0 0 0 0 0 0 0
0 0 0 0 0 0 0 0 0 0 1 1 1 1 1 1 1 1 1 1 1 1 1 1 1 1 1 1 1 1 0 0 0 0 0 0 0 0 0 0 0 0 0 0 0 0 0 0 0
0 0 0 0 0 0 0 0 0 1 1 1 1 1 1 1 1 1 1 1 1 1 1 1 1 1 1 1 1 0 0 0 0 0 0 0 0 0 0 0 0 0 0 0 0 0 0 0 0
0 0 0 0 0 0 0 0 0 1 1 1 1 1 1 1 1 1 1 1 1 1 1 1 1 1 1 1 1 0 0 0 0 0 0 0 0 0 0 0 0 0 0 0 0 0 0 0 0
0 0 0 0 0 0 0 0 0 1 1 1 1 1 1 1 1 1 1 1 1 1 1 1 1 1 1 1 0 0 0 0 0 0 0 0 0 0 0 0 0 0 0 0 0 0 0 0 0
0 0 0 0 0 0 0 0 0 1 1 1 1 1 1 1 1 1 1 1 1 1 0 0 1 1 1 0 0 0 0 0 0 0 0 0 0 0 0 0 0 0 0 0 0 0 0 0 0
0 0 0 0 0 0 0 0 0 0 1 1 1 1 0 0 1 1 1 1 0 0 0 0 0 0 0 0 0 0 0 0 0 0 0 0 0 0 0 0 0 0 0 0 0 0 0 0 0
0 0 0 0 0 0 0 0 0 0 0 0 0 0 0 0 0 0 0 0 0 0 0 0 0 0 0 0 0 0 0 0 0 0 0 0 0 0 0 0 0 0 0 0 0 0 0 0 0
0 0 0 0 0 0 0 0 0 0 0 0 0 0 0 0 0 0 0 0 0 0 0 0 0 0 0 0 0 0 0 0 0 0 0 0 0 0 0 0 0 0 0 0 0 0 0 0 0
0 0 0 0 0 0 0 0 0 0 0 0 0 0 0 0 0 0 0 0 0 0 0 0 0 0 0 0 0 0 0 0 0 0 0 0 0 0 0 0 0 0 0 0 0 0 0 0 0
0 0 0 0 0 0 0 0 0 0 0 0 0 0 0 0 0 0 0 0 0 0 0 0 0 0 0 0 0 0 0 0 0 0 0 0 0 0 0 0 0 0 0 0 0 0 0 0 0
0 0 0 0 0 0 0 0 0 0 0 0 0 0 0 0 0 0 0 0 0 0 0 0 0 0 0 0 0 0 0 0 0 0 0 0 0 0 0 0 0 0 0 0 0 0 0 0 0
0 0 0 0 0 0 0 0 0 0 0 0 0 0 0 0 0 0 0 0 0 0 0 0 0 0 0 0 0 0 0 0 0 0 0 0 0 0 0 0 0 0 0 0 0 0 0 0 0
0 0 0 0 0 0 0 0 0 0 0 0 0 0 0 0 0 0 0 0 0 0 0 0 0 0 0 0 0 0 0 0 0 0 0 0 0 0 0 0 0 0 0 0 0 0 0 0 0
0 0 0 0 0 0 0 0 0 0 0 0 0 0 0 0 0 0 0 0 0 0 0 0 0 0 0 0 0 0 0 0 0 0 0 0 0 0 0 0 0 0 0 0 0 0 0 0 0
Wind_Speed
5 4 1 3 5 3 5 7 5 6 3 0 4 7 8 6 5 4 4 14 15 16 14 17 18 18 18 18 17 17 16 16 16 16 16 16 15 15 14 14 13 12 12 12 12 12 12 13 13
2 1 3 5 5 1 7 7 6 7 4 2 5 7 8 5 6 9 8 13 17 16 13 15 18 18 18 18 17 17 17 16 16 15 15 15 15 14 13 13 13 12 12 12 12 11 12 12 12
2 0 4 4 3 6 7 5 3 4 3 3 2 4 6 7 8 8 10 17 16 14 12 14 20 18 18 18 17 17 17 16 16 15 15 15 14 13 12 13 12 12 11 11 11 11 10 10 10
2 4 4 3 6 8 8 9 7 6 4 1 4 5 4 5 8 11 17 19 17 14 12 14 19 18 17 17 17 16 17 16 16 15 15 14 13 13 12 12 12 12 11 11 11 10 10 9 9
4 4 3 2 7 8 8 11 9 6 3 1 5 5 3 3 12 19 19 18 17 13 10 13 17 17 17 17 17 16 16 15 14 14 14 13 13 12 11 11 11 11 11 11 11 10 9 8 7
4 5 3 3 8 8 7 8 6 4 2 2 5 6 3 6 15 16 16 15 15 14 12 11 16 17 17 16 16 15 14 14 13 13 13 12 12 11 11 11 11 10 10 10 10 9 8 7 6
4 4 3 4 5 8 9 6 2 1 2 1 4 7 4 6 10 14 14 13 13 13 11 9 9 12 15 15 15 14 13 13 13 12 12 12 12 11 11 10 10 10 10 10 10 9 8 7 5
5 4 2 3 4 7 7 6 2 3 3 3 5 8 5 6 11 13 12 12 12 11 10 8 8 8 8 10 14 14 13 13 13 13 13 13 12 12 12 9 9 10 10 10 10 10 8 7 6
4 4 3 4 3 6 6 6 6 4 6 6 6 6 8 13 15 14 12 10 9 10 7 7 7 7 7 7 10 11 13 12 12 11 13 11 5 5 6 8 10 10 10 10 10 9 8 7 6
5 4 7 7 4 3 4 4 4 6 8 7 8 10 11 13 13 14 13 12 10 10 8 7 7 8 7 7 6 5 6 6 6 5 7 5 4 4 6 8 10 10 10 10 10 9 8 6 2
5 7 7 6 6 3 2 5 5 5 5 3 7 9 9 10 8 10 11 12 11 10 8 7 7 7 7 5 5 3 3 3 4 5 5 4 3 3 3 3 4 5 6 4 5 5 3 3 2
4 8 7 6 4 1 0 2 5 5 2 5 9 10 10 10 7 7 8 9 9 9 8 7 6 5 6 5 5 4 3 3 3 4 5 4 3 3 3 3 3 2 2 2 2 2 3 3 3
5 8 7 6 3 1 2 2 3 2 3 7 10 11 11 9 7 6 7 8 8 8 6 6 7 6 4 4 4 4 3 3 4 3 4 5 4 4 4 4 3 3 2 2 2 3 3 3 3
5 4 4 3 2 1 2 0 2 1 5 8 11 10 9 9 9 8 7 7 7 6 6 5 6 6 5 4 3 4 4 3 3 3 4 5 4 4 4 4 4 3 3 3 3 3 3 2 1
2 2 5 4 2 2 3 3 1 4 7 9 10 11 10 9 9 8 6 6 5 4 4 5 5 5 5 4 3 3 3 3 3 3 3 4 4 4 4 4 3 3 3 3 2 3 2 2 2
4 3 3 7 3 3 6 2 4 4 9 9 9 10 10 9 9 7 6 6 5 5 4 3 4 3 4 3 3 2 1 1 2 2 2 3 4 4 4 3 3 3 3 2 3 3 3 3 3
4 2 5 8 4 3 6 4 3 4 12 11 10 9 10 9 9 7 7 7 5 5 5 3 3 3 3 3 3 3 2 3 2 2 2 2 3 3 3 3 3 3 3 3 3 3 4 4 4
4 3 4 5 4 3 4 4 3 5 11 11 10 10 10 9 8 7 7 7 6 5 6 5 3 2 2 3 3 3 3 3 2 2 2 2 1 2 2 2 3 3 3 2 3 4 4 4 4
5 4 5 6 3 4 5 5 4 6 9 9 8 9 10 8 7 7 7 7 7 6 6 5 4 3 2 2 3 3 2 1 2 2 2 2 1 1 1 2 2 2 3 3 4 5 6 4 4
6 5 5 4 2 4 5 5 4 6 7 7 8 8 9 8 8 8 8 9 8 6 5 4 4 3 2 2 2 2 3 2 2 1 2 2 2 2 1 1 2 2 2 3 4 5 4 3 3
5 4 3 2 3 5 6 3 3 5 7 8 8 7 7 9 9 9 9 9 9 9 7 5 4 3 3 3 4 3 3 2 2 1 2 3 4 3 3 2 2 2 2 3 3 4 5 4 3
4 4 2 1 3 2 2 2 1 3 4 6 6 6 6 7 9 9 9 9 9 8 8 7 6 5 4 4 4 4 4 3 3 2 2 3 4 4 3 3 3 2 2 2 2 2 3 5 4
4 2 1 2 2 2 3 3 2 3 3 3 4 5 6 7 8 9 9 8 8 8 7 7 7 7 6 5 5 5 5 4 3 3 4 4 4 5 4 4 3 2 2 3 3 3 2 2 3
3 5 7 6 5 2 2 2 2 2 4 6 5 6 7 8 8 8 8 7 7 7 7 7 7 7 6 6 6 6 6 5 5 5 4 4 3 4 5 5 4 4 3 3 3 4 4 3 3
6 7 5 6 5 3 2 2 3 2 4 8 9 8 8 7 8 8 7 7 7 8 7 7 7 7 7 7 6 6 5 6 6 4 4 4 3 3 4 4 4 4 4 4 4 5 5 4 4
2 8 7 4 4 4 2 1 1 1 4 9 9 9 9 8 7 8 7 7 7 7 7 7 7 7 6 6 6 5 5 4 4 4 4 3 3 3 3 4 5 5 5 5 5 5 5 5 5
2 2 6 7 1 1 1 0 0 2 6 9 9 9 9 7 7 7 7 7 7 7 7 6 6 7 6 6 6 5 5 5 4 4 4 3 3 4 5 5 5 5 6 6 5 5 5 6 6
4 5 5 5 3 2 2 3 4 7 8 9 9 9 8 7 7 7 6 6 6 6 6 6 6 6 6 6 5 5 5 5 5 4 5 5 5 5 5 5 6 6 6 6 6 6 6 7 6
2 2 4 4 5 5 3 5 4 10 11 11 9 9 8 7 6 5 5 5 5 6 6 6 6 6 6 6 6 6 5 5 5 5 5 5 5 5 5 5 6 7 7 6 6 7 7 8 7
3 4 6 5 3 4 3 5 1 8 9 10 11 10 8 8 7 6 6 5 5 6 6 6 5 5 5 5 6 6 6 6 6 6 5 5 6 6 6 6 6 7 7 6 7 7 7 7 8
Wind_Direction
305 287 115 62 56 46 254 250 255 289 296 337 109 107 110 113 141 164 156 151 144 147 155 156 153 149 145 141 138 134 130 128 125 123 120 119 118 117 117 119 119 121 122 123 123 121 121 121 120
297 300 66 65 93 244 265 251 255 254 222 148 96 101 96 86 109 119 129 152 146 148 152 155 154 151 148 145 142 140 138 135 133 129 127 126 124 123 123 125 125 126 126 128 127 126 126 125 123
277 95 89 87 153 200 242 263 270 291 242 151 112 92 109 131 131 141 150 146 139 144 149 156 155 153 151 148 146 145 144 142 140 137 135 134 132 130 131 133 133 133 133 134 133 132 131 130 128
47 50 57 91 242 236 237 272 289 298 299 102 115 85 89 136 146 142 139 141 140 144 149 156 155 153 153 152 150 150 149 148 147 145 143 141 140 139 140 141 142 142 141 141 140 139 137 136 135
65 77 66 293 259 262 260 266 269 256 255 110 105 98 72 49 114 127 136 141 142 142 144 152 153 153 154 155 154 154 153 152 152 150 149 148 147 148 148 148 148 148 147 147 146 145 144 144 144
55 72 98 256 271 283 281 266 262 224 204 122 106 108 72 106 121 134 138 139 139 140 139 146 152 153 155 157 156 155 155 154 154 154 154 154 153 153 154 155 154 153 153 152 152 152 153 152 155
116 106 188 243 282 295 292 293 247 162 90 72 115 101 100 117 131 134 131 129 129 132 133 137 149 154 156 156 156 154 154 155 155 155 155 157 158 160 162 161 161 160 159 160 160 162 165 166 170
143 96 315 289 282 285 297 329 6 78 84 40 79 115 138 141 125 120 118 118 122 124 130 135 140 147 153 156 160 158 157 158 158 158 159 161 164 165 166 164 167 168 169 170 170 172 176 180 187
110 79 262 253 257 279 315 351 350 35 68 50 59 98 130 129 122 118 115 112 120 126 131 139 142 146 148 154 161 161 163 163 162 164 165 162 159 160 165 170 174 177 178 179 180 184 187 193 204
109 157 233 224 223 265 322 355 350 39 49 52 62 76 105 114 122 128 132 136 138 142 148 149 151 153 151 159 150 154 163 164 164 165 166 159 153 163 166 176 179 183 186 188 191 196 198 199 209
167 200 233 251 245 229 336 358 10 71 50 87 110 109 108 103 113 131 140 146 147 146 146 147 159 158 153 148 145 154 158 162 169 168 164 159 155 164 165 168 182 184 187 188 199 203 202 196 204
220 247 240 250 248 211 67 34 28 53 101 111 110 109 99 100 101 116 135 142 140 141 147 145 152 156 159 152 156 159 158 165 182 180 172 165 165 168 166 166 166 169 174 176 184 201 213 211 208
235 253 255 247 257 212 96 79 92 68 97 89 91 91 96 101 98 98 107 119 126 136 143 151 154 150 150 146 157 159 158 169 182 184 181 175 173 174 170 173 174 179 177 178 195 196 202 215 216
247 249 259 258 255 202 135 290 86 180 111 88 86 88 86 84 83 81 85 93 107 132 145 148 149 146 141 149 162 159 163 176 180 179 185 179 173 173 174 175 170 179 195 193 192 190 180 184 172
287 322 323 292 253 223 114 351 226 185 113 100 95 91 85 79 77 77 86 100 115 124 126 126 141 146 144 145 158 156 158 165 169 167 172 170 167 166 167 167 170 183 190 189 179 175 151 158 156
2 22 313 286 244 221 121 226 250 162 115 109 107 101 92 77 73 73 74 82 88 89 86 105 118 122 134 141 137 119 124 121 119 128 152 161 161 169 168 162 174 176 177 174 171 168 149 149 141
1 313 273 288 262 174 133 185 216 125 112 109 105 99 93 83 72 70 71 80 91 97 95 97 80 86 119 125 114 100 90 79 86 95 104 126 142 156 165 163 171 162 166 173 178 157 142 138 131
257 263 283 276 273 127 138 162 144 110 114 115 112 104 96 86 75 71 72 75 81 82 86 83 84 80 92 99 93 91 84 71 60 74 83 91 114 164 172 162 167 159 162 166 155 137 131 134 133
242 273 289 280 275 112 136 134 125 114 109 112 111 106 100 93 80 67 64 62 63 58 63 70 70 71 67 100 119 112 103 102 84 62 71 87 95 194 183 165 156 155 170 169 152 136 129 127 126
249 262 280 299 20 101 113 98 90 91 101 109 109 107 104 98 78 63 57 52 49 50 50 57 57 71 87 110 122 122 126 115 92 56 53 63 69 51 70 95 136 146 150 144 146 136 131 143 147
265 224 241 274 14 53 94 56 70 85 91 90 83 84 87 95 89 75 63 55 47 37 28 35 34 57 77 98 113 118 109 107 82 41 39 35 61 60 53 67 88 103 136 147 151 148 146 158 170
262 249 174 84 65 316 120 169 240 126 95 95 95 88 81 80 82 78 69 60 53 39 23 20 36 45 56 78 101 116 120 118 102 89 79 58 59 63 53 62 71 81 105 129 144 139 150 153 160
212 224 78 71 101 39 16 123 247 145 126 124 114 104 93 84 79 76 70 62 54 45 35 26 38 40 42 58 76 88 90 85 89 84 78 63 55 53 51 53 60 67 77 87 95 97 111 143 157
156 57 34 42 66 43 281 141 234 215 189 150 131 116 101 92 83 75 68 62 53 46 40 34 38 37 38 51 62 81 93 92 87 79 75 61 51 49 42 51 57 58 59 63 77 93 94 102 117
72 78 32 4 16 261 265 119 231 269 166 149 145 130 108 94 86 75 61 54 51 45 39 38 43 40 39 51 54 64 79 89 89 90 86 80 66 55 42 48 57 60 58 57 64 79 81 85 96
139 128 149 191 222 267 328 179 239 14 111 121 123 121 108 97 90 83 70 59 56 48 41 42 48 43 40 48 52 56 65 80 88 89 92 85 78 61 52 55 57 58 60 62 64 72 73 78 83
109 144 161 139 160 259 256 181 218 126 126 131 130 123 114 106 97 88 74 63 58 52 45 43 50 49 43 48 57 58 64 76 83 82 85 79 71 69 62 66 66 60 59 60 62 67 66 74 75
135 149 91 108 143 244 263 217 210 188 177 159 145 135 123 113 100 91 83 70 61 54 46 48 49 52 46 47 55 65 59 65 73 77 78 76 71 69 68 64 64 61 59 60 65 66 64 70 64
43 83 113 124 154 160 233 259 215 186 178 164 149 136 130 120 110 100 88 79 70 58 49 48 50 51 50 53 58 62 59 59 63 66 68 75 74 71 70 70 71 69 66 66 71 70 70 71 64
160 180 149 149 197 166 175 257 282 163 158 150 140 134 126 117 109 100 90 80 72 62 55 53 50 53 57 63 67 64 62 61 61 61 58 64 67 66 68 67 69 72 69 67 71 73 69 72 69